[[[{"header":{"parameterUnit":"kt","parameterCategory":2,"dx":1,"dy":1,"la1":30.253999710083008,"la2":30.299108505249023,"lo1":-89.0895004272461,"lo2":-89.04439544677734,"nx":28,"ny":28,"refTime":"2022-10-19T09:00:00:Z","depth":0,"parameterNumber":1,"parameterNumberName":"U-component_of_WINDS"},"data":[2.1501,2.1487,2.1456,2.1426,2.1393,2.1366,2.1346,2.1317,2.1286,2.125,2.1223,2.1188,2.1143,2.1102,2.107,2.1055,2.1043,2.1063,2.1041,2.0985,2.0975,2.0965,2.0966,2.1061,2.1061,2.1103,2.1104,2.1104,2.1465,2.1432,2.1407,2.1361,2.1339,2.1302,2.1262,2.1245,2.1222,2.1183,2.1154,2.1119,2.1086,2.1032,2.0995,2.0987,2.0965,2.0979,2.0977,2.0971,2.091,2.0911,2.0996,2.0996,2.0996,2.0996,2.0996,2.0996,2.1392,2.1385,2.1338,2.131,2.1278,2.1247,2.1234,2.1192,2.1165,2.1123,2.1089,2.1061,2.1014,2.0951,2.0922,2.0898,2.0877,2.088,2.088,2.0882,2.0888,2.0832,2.089,2.089,2.089,2.0889,2.0889,0,2.1327,2.1301,2.1274,2.1238,2.1215,2.1183,2.1148,2.1139,2.107,2.1051,2.102,2.0996,2.095,2.0916,2.0872,2.0839,2.0795,2.0787,2.0789,2.0805,2.0825,2.0813,2.0715,2.0785,2.0784,2.0783,2.0783,2.0782,2.1249,2.1245,2.1179,2.1165,2.1137,2.1114,2.1093,2.1032,2.1012,2.0959,2.0955,2.0921,2.089,2.0845,2.0792,2.0756,2.0733,2.0764,2.0727,2.0744,2.0732,2.0732,2.0731,2.0771,2.0773,2.0774,2.0775,0,2.1208,2.1154,2.1137,2.1071,2.1054,2.1052,2.0995,2.0985,2.0943,2.0923,2.0915,2.0849,2.0818,2.076,2.0713,2.0683,2.0678,2.0658,2.0694,2.0686,2.0707,2.0705,2.0785,2.0792,2.0694,2.0695,2.0696,0,2.112,2.1116,2.1035,2.1027,2.1021,2.0959,2.0954,2.0917,2.0875,2.0858,2.0799,2.0785,2.0711,2.0688,2.0644,2.0629,2.062,2.0596,2.0584,2.06,2.0603,2.0586,2.0581,2.0558,2.0558,2.0557,2.0557,0,2.106,2.1012,2.0999,2.0979,2.0907,2.0902,2.0872,2.0823,2.0802,2.0766,2.0752,2.0714,2.0693,2.0664,2.0607,2.0585,2.0588,2.0545,2.0563,2.0564,2.0564,2.0565,2.0652,2.0557,2.0556,2.0556,2.0556,0,2.0978,2.0944,2.0935,2.0873,2.0862,2.0854,2.0812,2.0791,2.0744,2.0715,2.0686,2.0638,2.0621,2.0582,2.0557,2.0543,2.0526,2.0501,2.0501,2.0493,2.0451,2.0507,2.0598,2.0604,2.0491,2.049,2.0489,0,2.0925,2.09,2.0845,2.0837,2.0817,2.0751,2.074,2.07,2.0661,2.0637,2.0593,2.0566,2.0525,2.0507,2.0503,2.0456,2.0474,2.0452,2.0416,2.0416,2.043,2.0513,2.0541,2.0585,2.0482,2.0482,2.0483,0,2.0876,2.0787,2.079,2.0763,2.07,2.0682,2.067,2.0629,2.0616,2.0576,2.0563,2.0524,2.0491,2.0463,2.0419,2.0418,2.046,2.0381,2.0379,2.0397,2.0473,2.0499,2.0507,2.0431,2.0431,2.0432,2.0477,0,2.0764,2.0744,2.0747,2.0691,2.0668,2.0659,2.0595,2.0579,2.054,2.0498,2.0478,2.0426,2.0383,2.0376,2.0337,2.0352,2.0339,2.0304,2.026,2.0316,2.0329,2.0334,2.0246,2.0244,2.0243,2.0242,0,0,2.0725,2.0694,2.0633,2.0618,2.0595,2.0525,2.0521,2.0489,2.0427,2.0412,2.0388,2.0324,2.0283,2.0265,2.0277,2.026,2.0256,2.0238,2.029,2.0296,2.0301,2.0316,2.0322,2.0239,2.0239,2.0238,2.0238,0,2.0671,2.0633,2.063,2.0595,2.054,2.0496,2.0495,2.0428,2.0401,2.038,2.0321,2.0301,2.0251,2.0215,2.019,2.024,2.0195,2.0232,2.028,2.0278,2.0286,2.0292,2.0309,2.0316,2.0234,2.0234,2.0235,0,2.061,2.0561,2.0553,2.0496,2.0459,2.0439,2.0379,2.036,2.0344,2.0265,2.0246,2.0208,2.0154,2.0145,2.0139,2.0115,2.0143,2.0122,2.0129,2.0126,2.0121,2.013,2.0139,2.003,2.003,2.003,0,0,2.0571,2.0551,2.0478,2.0479,2.0461,2.0393,2.0376,2.0333,2.0287,2.0269,2.0219,2.0175,2.0145,2.0127,2.0095,2.0094,2.0077,2.01,2.011,2.0118,2.0119,2.0116,2.0125,2.0028,2.0028,2.0028,0,0,2.0551,2.0467,2.0435,2.0429,2.0388,2.0314,2.0317,2.0276,2.024,2.0234,2.016,2.0145,2.0135,2.01,2.0086,2.0077,2.0035,2.0037,2.0101,2.0112,2.0121,2.0129,2.0014,0,0,0,0,0,2.0462,2.0478,2.045,2.0439,2.0365,2.033,2.032,2.0261,2.0232,2.0236,2.0188,2.0141,2.0077,2.0063,2.0053,2.0068,2.0007,2.001,2.0014,2.0095,2.0107,2.0118,0,0,0,0,0,0,2.0457,2.0444,2.0449,2.0378,2.036,2.0329,2.0268,2.0252,2.0231,2.0222,2.0152,2.0138,2.0086,2.0064,2.0056,2.0072,2.0016,2.0008,2.0011,2.0014,2.0099,2.0109,2.0118,0,0,0,0,0,2.0453,2.0442,2.034,2.0377,2.0362,2.0286,2.0267,2.0253,2.0235,2.0159,2.0145,2.0192,2.0088,2.0077,2.0059,2.0077,2.0022,2.0019,2.001,2.0013,2.0015,2.0104,0,0,0,0,0,0,2.045,2.0429,2.0335,2.0328,2.0366,2.0287,2.0272,2.0255,2.0173,2.0158,2.0196,2.019,2.009,2.0081,2.0072,2.0083,2.0026,2.0023,2.0021,2.0012,2.0014,2.0016,0,0,0,0,0,0,2.0434,2.0424,2.0332,2.0321,2.0313,2.0287,2.0275,2.025,2.0172,2.0213,2.0206,2.0194,2.0102,2.0084,2.0077,2.0041,2.0029,2.0026,2.0025,2.0023,2.0014,2.0015,0,0,0,0,0,0,2.0429,2.0419,2.0323,2.0316,2.0308,2.0227,2.0264,2.0191,2.0166,2.0218,2.0161,2.0159,2.0106,2.0098,2.008,2.0047,2.0042,2.0029,2.0027,2.0026,2.0025,0,0,0,0,0,0,0,2.0424,2.0499,2.0376,2.0312,2.0305,2.0265,2.0263,2.0261,2.0165,2.0163,2.0162,2.016,2.0045,2.0042,2.0039,2.0053,0,0,2.0029,2.0028,0,0,0,0,0,0,0,0,2.0501,2.0499,2.0376,2.0375,2.0373,2.0265,2.0263,2.0262,2.0165,2.0164,2.0162,2.0161,2.0044,2.0042,2.0039,0,0,0,0,0,0,0,0,0,0,0,0,0,0,0,2.0376,2.0375,0,2.0265,2.0263,2.0262,2.0165,2.0164,2.0162,2.0161,2.0044,2.0042,2.004,0,0,0,0,0,0,0,0,0,0,0,0,0,0,0,0,0,0,0,0,0,0,0,0,0,0,0,0,0,0,0,0,0,0,0,0,0,0,0,0,0,0,0,0,0,0,0,0,0,0,0,0,0,0,0,0,0,0,0,0,0,0,0,0,0,0,0,0,0]}],[{"header":{"parameterUnit":"kt","parameterCategory":2,"dx":1,"dy":1,"la1":30.253999710083008,"la2":30.299108505249023,"lo1":-89.0895004272461,"lo2":-89.04439544677734,"nx":28,"ny":28,"refTime":"2022-10-19T09:00:00:Z","depth":0,"parameterNumber":2,"parameterNumberName":"V-component_of_WINDS"},"data":[-6.9203,-6.9358,-6.9392,-6.9584,-6.9647,-6.9783,-6.9843,-6.9923,-6.9996,-7.0162,-7.0263,-7.0313,-7.0398,-7.0527,-7.0637,-7.0657,-7.07,-7.073,-7.0747,-7.0585,-7.0565,-7.0545,-7.0509,-7.074,-7.074,-7.0909,-7.091,-7.0912,-6.9077,-6.914,-6.9253,-6.9385,-6.9481,-6.9472,-6.9575,-6.9656,-6.9778,-6.987,-6.9972,-7.0121,-7.0244,-7.0321,-7.0443,-7.0515,-7.0517,-7.0546,-7.0539,-7.0552,-7.0381,-7.0343,-7.0542,-7.0542,-7.0542,-7.0542,-7.0541,-7.0541,-6.8856,-6.8948,-6.9048,-6.917,-6.9246,-6.9334,-6.9428,-6.9487,-6.9597,-6.9731,-6.975,-6.9889,-6.9987,-7.0152,-7.0216,-7.0325,-7.0299,-7.034,-7.035,-7.0359,-7.0363,-7.0109,-7.0348,-7.0347,-7.0347,-7.0347,-7.0346,0,-6.8703,-6.8725,-6.8836,-6.8957,-6.9049,-6.9146,-6.9241,-6.93,-6.9358,-6.9447,-6.9578,-6.9659,-6.9819,-6.9945,-7.0069,-7.0128,-7.0126,-7.0131,-7.0159,-7.0149,-7.0124,-7.0135,-6.9851,-7.0123,-7.0121,-7.012,-7.0119,-7.0118,-6.848,-6.8585,-6.8707,-6.878,-6.8841,-6.8959,-6.9036,-6.908,-6.916,-6.9283,-6.9362,-6.949,-6.9595,-6.9799,-6.9867,-6.9987,-6.9986,-7.0086,-7.0004,-6.9991,-6.9984,-6.9976,-6.9985,-7.01,-7.0102,-7.0104,-7.0106,0,-6.8349,-6.8406,-6.858,-6.8691,-6.8722,-6.883,-6.8924,-6.9019,-6.9067,-6.9203,-6.9238,-6.9312,-6.9441,-6.9493,-6.9651,-6.9674,-6.9848,-6.9847,-6.9814,-6.9815,-6.9907,-6.9896,-7.0203,-7.0244,-7.001,-7.0012,-7.0014,0,-6.8179,-6.8317,-6.8392,-6.849,-6.8644,-6.8685,-6.8836,-6.8892,-6.8977,-6.9086,-6.9094,-6.9195,-6.9247,-6.9355,-6.939,-6.9543,-6.9574,-6.9599,-6.9606,-6.9597,-6.9593,-6.9637,-6.9624,-6.9622,-6.9621,-6.9619,-6.9618,0,-6.7967,-6.8171,-6.8332,-6.8387,-6.8519,-6.8594,-6.8652,-6.8749,-6.8825,-6.8931,-6.898,-6.9102,-6.9168,-6.9262,-6.9304,-6.9246,-6.9494,-6.9423,-6.9519,-6.9518,-6.9569,-6.9565,-6.9826,-6.9616,-6.9615,-6.9615,-6.9614,0,-6.7837,-6.7946,-6.8173,-6.8282,-6.8333,-6.844,-6.8562,-6.8666,-6.8768,-6.8797,-6.8881,-6.8892,-6.9033,-6.8958,-6.9152,-6.9064,-6.9128,-6.9166,-6.9174,-6.9187,-6.9101,-6.9237,-6.9484,-6.951,-6.9202,-6.9198,-6.9195,0,-6.7577,-6.7822,-6.7859,-6.8074,-6.8194,-6.8193,-6.8313,-6.8403,-6.8452,-6.856,-6.8613,-6.8736,-6.8692,-6.8738,-6.8827,-6.8886,-6.9001,-6.8873,-6.9024,-6.9029,-6.8993,-6.9221,-6.9243,-6.9425,-6.9152,-6.9157,-6.916,0,-6.7382,-6.7544,-6.758,-6.7643,-6.7771,-6.7872,-6.8011,-6.8142,-6.8211,-6.8314,-6.8428,-6.8605,-6.8577,-6.8654,-6.8676,-6.8766,-6.8924,-6.8725,-6.8728,-6.8756,-6.9136,-6.9156,-6.9186,-6.8919,-6.8924,-6.8929,-6.9126,0,-6.7166,-6.7298,-6.7399,-6.7542,-6.7629,-6.7768,-6.7825,-6.7908,-6.792,-6.7968,-6.814,-6.823,-6.8363,-6.8414,-6.8427,-6.8618,-6.8593,-6.8564,-6.8493,-6.8644,-6.8709,-6.8737,-6.8389,-6.8388,-6.8386,-6.8385,0,0,-6.6901,-6.7091,-6.7128,-6.7265,-6.734,-6.7338,-6.7481,-6.7554,-6.7703,-6.7754,-6.7716,-6.7977,-6.8051,-6.8254,-6.8305,-6.8361,-6.8399,-6.8345,-6.8572,-6.8593,-6.8612,-6.8682,-6.8709,-6.8383,-6.8382,-6.8381,-6.8381,0,-6.6834,-6.6913,-6.7055,-6.7133,-6.7249,-6.7294,-6.7328,-6.7443,-6.748,-6.7651,-6.7645,-6.7756,-6.7965,-6.8043,-6.811,-6.8323,-6.8311,-6.836,-6.8454,-6.8556,-6.8578,-6.8598,-6.8671,-6.8697,-6.8377,-6.8378,-6.8378,0,-6.6649,-6.6735,-6.681,-6.6984,-6.706,-6.7185,-6.7125,-6.7261,-6.7353,-6.7344,-6.7513,-6.757,-6.7681,-6.7867,-6.7952,-6.7919,-6.8228,-6.8142,-6.8153,-6.8163,-6.8264,-6.8291,-6.8315,-6.7997,-6.7995,-6.7994,0,0,-6.6583,-6.6706,-6.6811,-6.6974,-6.7022,-6.7091,-6.7164,-6.7183,-6.7284,-6.7324,-6.7397,-6.7494,-6.7615,-6.7694,-6.7812,-6.8008,-6.8033,-6.8093,-6.8111,-6.8126,-6.8143,-6.8248,-6.8275,-6.7988,-6.7988,-6.7988,0,0,-6.6551,-6.6679,-6.6674,-6.687,-6.6966,-6.708,-6.7176,-6.7172,-6.7284,-6.7274,-6.7313,-6.7341,-6.7516,-6.7573,-6.7487,-6.7786,-6.7716,-6.7738,-6.7743,-6.7766,-6.7784,-6.7765,-6.7437,0,0,0,0,0,-6.6511,-6.6663,-6.6657,-6.6699,-6.6919,-6.7083,-6.7111,-6.7148,-6.7096,-6.7171,-6.7232,-6.7216,-6.7534,-6.7459,-6.7499,-6.7594,-6.7912,-6.7925,-6.7938,-6.7991,-6.8015,-6.8035,0,0,0,0,0,0,-6.6527,-6.6578,-6.6653,-6.6773,-6.6823,-6.7078,-6.6998,-6.7012,-6.7089,-6.7083,-6.7205,-6.722,-6.7254,-6.7441,-6.7477,-6.7566,-6.7425,-6.7917,-6.7929,-6.7939,-6.7999,-6.8019,-6.8036,0,0,0,0,0,-6.6541,-6.6581,-6.6926,-6.6771,-6.6815,-6.6899,-6.6992,-6.7004,-6.7063,-6.7158,-6.7173,-6.7084,-6.7255,-6.7288,-6.7463,-6.7549,-6.7401,-6.7414,-6.7924,-6.7934,-6.7942,-6.8009,0,0,0,0,0,0,-6.6551,-6.6593,-6.6935,-6.695,-6.6717,-6.6886,-6.6913,-6.6996,-6.7134,-6.715,-6.7038,-6.7032,-6.7259,-6.7283,-6.7308,-6.7541,-6.7381,-6.7394,-6.7403,-6.7931,-6.7938,-6.7945,0,0,0,0,0,0,-6.6571,-6.6605,-6.6943,-6.6872,-6.6878,-6.6873,-6.6898,-6.7052,-6.7136,-6.7006,-6.7006,-6.7034,-6.7221,-6.728,-6.73,-6.7539,-6.7366,-6.7378,-6.7387,-6.7393,-6.7937,-6.7943,0,0,0,0,0,0,-6.6586,-6.6615,-6.6868,-6.6873,-6.6879,-6.7044,-6.701,-6.7233,-6.7076,-6.7,-6.7062,-6.7056,-6.7219,-6.7239,-6.7294,-6.7525,-6.7536,-6.7366,-6.7375,-6.7381,-6.7385,0,0,0,0,0,0,0,-6.6598,-6.6394,-6.6849,-6.6875,-6.6879,-6.7084,-6.7088,-6.7092,-6.7074,-6.7069,-6.7064,-6.7059,-6.7293,-6.7307,-6.7321,-6.7514,0,0,-6.7365,-6.7371,0,0,0,0,0,0,0,0,-6.6382,-6.6391,-6.685,-6.6853,-6.6856,-6.7084,-6.7087,-6.7091,-6.7073,-6.7069,-6.7065,-6.7061,-6.7297,-6.7308,-6.7319,0,0,0,0,0,0,0,0,0,0,0,0,0,0,0,-6.685,-6.6853,0,-6.7085,-6.7087,-6.709,-6.7073,-6.7069,-6.7066,-6.7062,-6.73,-6.7309,-6.7319,0,0,0,0,0,0,0,0,0,0,0,0,0,0,0,0,0,0,0,0,0,0,0,0,0,0,0,0,0,0,0,0,0,0,0,0,0,0,0,0,0,0,0,0,0,0,0,0,0,0,0,0,0,0,0,0,0,0,0,0,0,0,0,0,0,0,0,0,0]}]]]